Observations for Trim Patrick St
| Time | AQI | Temp °C | Hum % | Pres Pa | CO μg/m³ | H₂S μg/m³ | NO μg/m³ | NO₂ μg/m³ | O₃ μg/m³ | SO₂ μg/m³ | PM1 μg/m³ | PM2.5 μg/m³ | PM10 μg/m³ |
|---|---|---|---|---|---|---|---|---|---|---|---|---|---|
| Friday 7 August 2026 | |||||||||||||
| 15:27 | 2 | 29.6 | 33 | 69,171 | 0 | 0 | 1.17 | 14.46 | 70.65 | 12.02 | 2.86 | 9.09 | 10 |
| 15:26 | 2 | 29.6 | 34 | 69,175 | 0 | 0 | 1.14 | 15.06 | 92.2 | 13.38 | 2.86 | 8.25 | 9.07 |
| 15:25 | 2 | 29.6 | 32 | 69,181 | 0 | 0 | 1.21 | 15.73 | 78.44 | 11.56 | 3.71 | 10.73 | 11.8 |
| 15:24 | 2 | 29.6 | 34 | 69,157 | 0 | 0 | 1.12 | 11.53 | 71.85 | 11.92 | 2.86 | 8.23 | 9.06 |
| 15:23 | 2 | 29.5 | 34 | 69,163 | 0 | 0 | 1.14 | 13.1 | 82.48 | 11.88 | 5.43 | 12.19 | 13.41 |
| 15:20 | 2 | 29.2 | 34 | 69,136 | 0 | 0 | 1.24 | 13.4 | 82.42 | 11.34 | 3.71 | 9.84 | 10.83 |
| 15:18 | 2 | 29.1 | 35 | 69,134 | 0 | 3.78 | 1.16 | 12.57 | 92.25 | 12.53 | 3.71 | 8.96 | 9.85 |
| 15:17 | 2 | 29 | 34 | 69,128 | 0 | 3.79 | 1.24 | 15.34 | 94.07 | 11.99 | 2.86 | 9 | 9.9 |
| 15:16 | 2 | 29 | 34 | 69,128 | 0 | 1.55 | 1.3 | 14.49 | 106.75 | 12.14 | 2 | 8.25 | 9.08 |
| 15:15 | 2 | 29 | 34 | 69,126 | 0 | 0 | 1.26 | 12.47 | 98.32 | 12.36 | 2.86 | 9.81 | 10.8 |
| 15:14 | 2 | 29 | 33 | 69,124 | 0 | 0 | 1.32 | 11.69 | 77.92 | 11.71 | 2.86 | 9.06 | 9.97 |
| 15:13 | 2 | 28.9 | 34 | 69,124 | 0 | 0 | 1.28 | 11.43 | 86.3 | 12.33 | 3.71 | 10.63 | 11.69 |
| 15:12 | 2 | 28.9 | 34 | 69,116 | 0 | 0 | 1.29 | 11.77 | 88.2 | 12.03 | 3.71 | 9.85 | 10.83 |
| 15:11 | 2 | 28.8 | 34 | 69,112 | 0 | 0 | 1.33 | 11.23 | 93.83 | 12.3 | 2 | 8.25 | 9.07 |
| 15:10 | 2 | 28.8 | 34 | 69,134 | 0 | 0 | 1.34 | 11.63 | 92.74 | 12.04 | 3.71 | 10.63 | 11.69 |
| 15:09 | 2 | 28.9 | 33 | 69,134 | 0 | 0 | 1.32 | 8.57 | 73.39 | 11.86 | 3.71 | 9.86 | 10.85 |
| 15:08 | 2 | 28.9 | 34 | 69,132 | 0 | 0 | 1.26 | 11.97 | 105.03 | 12.61 | 3.71 | 9.04 | 9.94 |
| 15:07 | 2 | 29 | 33 | 69,132 | 0 | 0 | 1.27 | 12.09 | 76.45 | 12.28 | 2.86 | 8.3 | 9.13 |
| 15:06 | 2 | 29.1 | 33 | 69,132 | 0 | 0 | 1.23 | 11.62 | 73.67 | 12.2 | 2.86 | 9.1 | 10.01 |
| 15:05 | 2 | 29.2 | 33 | 69,159 | 0 | 0 | 1.19 | 12.14 | 87.42 | 11.85 | 2.86 | 9.1 | 10.01 |